New York, NY

3:05 PM EST on January 19, 2018 (GMT -0500)
La Guardia

Weather History for KLGA - October, 2014

Change the Weather History Date:

Sunday, October 26, 2014

  Actual Average Record
Temperature  
Mean Temperature 58 °F 55 °F  
Max Temperature 62 °F 62 °F 76 °F (1963)
Min Temperature 54 °F 48 °F 34 °F (1962)
Degree Days  
Heating Degree Days 7 10  
Month to date heating degree days 126 180  
Since 1 July heating degree days 139 215  
Cooling Degree Days 0 0  
Month to date cooling degree days 24 20  
Year to date cooling degree days 1192 1210  
Growing Degree Days 8 (Base 50)    
Moisture  
Dew Point 40 °F    
Average Humidity 53    
Maximum Humidity 67    
Minimum Humidity 39    
Precipitation  
Precipitation T in 0.12 in 3.30 in (1943)
Month to date precipitation 3.85 3.21  
Year to date precipitation 40.15 37.19  
Snow  
Snow 0.00 in 0.00 in 1.20 in (1962)
Month to date snowfall 0.0 0.0  
Since 1 July snowfall 0.0 0.0  
Snow Depth 0.00 in    
Sea Level Pressure  
Sea Level Pressure 29.66 in    
Wind  
Wind Speed 16 mph (WNW)    
Max Wind Speed 25 mph    
Max Gust Speed 33 mph    
Visibility 10 miles    
Events Rain    
T = Trace of Precipitation, MM = Missing Value Source: NWS Daily Summary

Daily Weather History Graph

Daily Weather History Graph

Search for Another Location

Airport or City:

Trip Planner

Search our weather history database for the weather conditions in past years. The results will help you decide how hot, cold, wet, or windy it might be!

Date:

Astronomy

Oct. 26, 2014 Rise Set
Actual Time 7:18 AM EDT 5:59 PM EDT
Civil Twilight 6:50 AM EDT 6:27 PM EDT
Nautical Twilight 6:18 AM EDT 6:59 PM EDT
Astronomical Twilight 5:46 AM EDT 7:31 PM EDT
Moon 9:55 AM EDT (10/26) 8:07 PM EDT (10/26)
Length of Visible Light 11h 36m
Length of Day
10h 40m
Waxing Crescent, 8% of the Moon is Illuminated
Oct 26
Waxing Crescent
Oct 30
First Quarter
Nov 6
Full
Nov 14
Last Quarter
Nov 22
New

Hourly Weather History & Observations

Time (EDT) Temp. Dew Point Humidity Pressure Visibility Wind Dir Wind Speed Gust Speed Precip Events Conditions
12:51 AM 62.1 °F 46.0 °F 56% 29.57 in 10.0 mi West 15.0 mph 25.3 mph 0.00 in Rain Light Rain
1:51 AM 61.0 °F 48.0 °F 62% 29.55 in 10.0 mi West 13.8 mph - 0.00 in   Overcast
2:51 AM 59.0 °F 48.9 °F 69% 29.55 in 10.0 mi West 5.8 mph - N/A   Mostly Cloudy
3:51 AM 60.1 °F 43.0 °F 53% 29.55 in 10.0 mi West 11.5 mph - N/A   Scattered Clouds
4:44 AM 57.2 °F 44.6 °F 63% 29.57 in 10.0 mi NW 11.5 mph - N/A   Scattered Clouds
4:51 AM 57.0 °F 45.0 °F 64% 29.57 in 10.0 mi NNW 12.7 mph - N/A   Scattered Clouds
5:51 AM 55.9 °F 41.0 °F 57% 29.61 in 10.0 mi NW 13.8 mph 21.9 mph N/A   Scattered Clouds
6:51 AM 55.0 °F 37.9 °F 53% 29.61 in 10.0 mi WNW 12.7 mph - N/A   Scattered Clouds
7:51 AM 55.0 °F 37.0 °F 51% 29.62 in 10.0 mi West 10.4 mph - N/A   Scattered Clouds
8:51 AM 55.9 °F 37.0 °F 49% 29.64 in 10.0 mi NW 12.7 mph 19.6 mph N/A   Scattered Clouds
9:51 AM 57.0 °F 35.1 °F 44% 29.63 in 10.0 mi West 11.5 mph 24.2 mph N/A   Scattered Clouds
10:51 AM 57.9 °F 35.1 °F 42% 29.63 in 10.0 mi WNW 16.1 mph 24.2 mph N/A   Mostly Cloudy
11:51 AM 60.1 °F 37.0 °F 42% 29.63 in 10.0 mi NW 20.7 mph 27.6 mph N/A   Mostly Cloudy
12:51 PM 60.1 °F 37.0 °F 42% 29.63 in 10.0 mi NW 23.0 mph 26.5 mph N/A   Mostly Cloudy
1:51 PM 61.0 °F 36.0 °F 39% 29.62 in 10.0 mi WNW 20.7 mph 27.6 mph N/A   Scattered Clouds
2:51 PM 61.0 °F 37.0 °F 41% 29.63 in 10.0 mi WNW 17.3 mph 26.5 mph N/A   Overcast
3:51 PM 60.1 °F 37.9 °F 44% 29.66 in 10.0 mi NW 20.7 mph 25.3 mph N/A   Mostly Cloudy
4:51 PM 59.0 °F 39.0 °F 48% 29.69 in 10.0 mi NW 21.9 mph 27.6 mph N/A   Mostly Cloudy
5:51 PM 57.2 °F 37.4 °F 48% 29.72 in 10.0 mi NW 20.7 mph 27.6 mph N/A   Mostly Cloudy
6:51 PM 57.9 °F 37.0 °F 46% 29.75 in 10.0 mi WNW 17.3 mph 25.3 mph N/A   Mostly Cloudy
7:51 PM 57.0 °F 39.0 °F 51% 29.78 in 10.0 mi WNW 17.3 mph 26.5 mph N/A   Mostly Cloudy
8:51 PM 57.0 °F 39.0 °F 51% 29.80 in 10.0 mi NW 11.5 mph 20.7 mph N/A   Overcast
9:51 PM 57.0 °F 37.9 °F 49% 29.81 in 10.0 mi NW 17.3 mph 25.3 mph N/A   Mostly Cloudy
10:51 PM 57.0 °F 37.9 °F 49% 29.83 in 10.0 mi NW 18.4 mph 26.5 mph N/A   Mostly Cloudy
11:51 PM 57.0 °F 37.9 °F 49% 29.83 in 10.0 mi NW 16.1 mph - N/A   Mostly Cloudy